Jackson, MI

3:53 PM EST on February 06, 2016 (GMT -0500)
Jackson County-Reynolds

Weather History for KJXN - October, 2013

Change the Weather History Date:

Wednesday, October 2, 2013

  Actual Average Record
Temperature  
Mean Temperature 66 °F 55 °F  
Max Temperature 78 °F 66 °F 87 °F (1971)
Min Temperature 53 °F 44 °F 26 °F (1974)
Degree Days  
Heating Degree Days 0 11  
Month to date heating degree days 5 21  
Since 1 July heating degree days 213 209  
Cooling Degree Days 1 1  
Month to date cooling degree days 1 2  
Year to date cooling degree days 605 588  
Growing Degree Days 16 (Base 50)    
Moisture  
Dew Point 55 °F    
Average Humidity 66    
Maximum Humidity 100    
Minimum Humidity 32    
Precipitation  
Precipitation 0.00 in 0.09 in 0.83 in (2006)
Month to date precipitation 0.00 0.19  
Year to date precipitation 27.10 24.59  
Sea Level Pressure  
Sea Level Pressure 30.05 in    
Wind  
Wind Speed 2 mph (West)    
Max Wind Speed 10 mph    
Max Gust Speed 14 mph    
Visibility 7 miles    
Events Fog    
T = Trace of Precipitation, MM = Missing Value Source: NWS Daily Summary

Daily Weather History Graph

Daily Weather History Graph

Search for Another Location

Airport or City:

Trip Planner

Search our weather history database for the weather conditions in past years. The results will help you decide how hot, cold, wet, or windy it might be!

Date:

Astronomy

Oct. 02, 2013 Rise Set
Actual Time 7:36 AM EDT 7:17 PM EDT
Civil Twilight 7:08 AM EDT 7:45 PM EDT
Nautical Twilight 6:35 AM EDT 8:17 PM EDT
Astronomical Twilight 6:02 AM EDT 8:50 PM EDT
Moon 5:06 AM EDT (10/2) 5:54 PM EDT (10/2)
Length of Visible Light 12h 36m
Length of Day
11h 40m
Waning Crescent, 6% of the Moon is Illuminated
Oct 2
Waning Crescent
Oct 4
New
Oct 11
First Quarter
Oct 18
Full
Oct 26
Last Quarter

Hourly Weather History & Observations

Time (EDT) Temp. Dew Point Humidity Pressure Visibility Wind Dir Wind Speed Gust Speed Precip Events Conditions
12:56 AM 64.0 °F 60.1 °F 87% 29.96 in 10.0 mi WSW 6.9 mph - N/A   Clear
1:56 AM 64.0 °F 60.1 °F 87% 29.97 in 10.0 mi SW 9.2 mph - N/A   Clear
2:56 AM 64.0 °F 60.1 °F 87% 29.98 in 10.0 mi WSW 8.1 mph - N/A   Clear
3:56 AM 64.0 °F 61.0 °F 90% 29.99 in 10.0 mi West 6.9 mph - N/A   Clear
4:56 AM 64.0 °F 61.0 °F 90% 30.01 in 9.0 mi West 5.8 mph - N/A   Clear
5:56 AM 62.1 °F 61.0 °F 96% 30.02 in 6.0 mi WNW 3.5 mph - N/A   Mostly Cloudy
6:56 AM 60.1 °F 59.0 °F 96% 30.04 in 3.0 mi Calm Calm - N/A   Clear
7:13 AM 60.8 °F 59.0 °F 94% 30.05 in 2.5 mi Calm Calm - N/A   Clear
7:27 AM 60.8 °F 59.0 °F 94% 30.05 in 1.0 mi Calm Calm - N/A   Clear
7:34 AM 60.8 °F 59.0 °F 94% 30.05 in 0.8 mi Calm Calm - N/A   Clear
7:51 AM 57.2 °F 57.2 °F 100% 30.06 in 0.2 mi West 3.5 mph - N/A Fog Fog
7:56 AM 57.9 °F 57.9 °F 100% 30.06 in 0.2 mi Calm Calm - N/A Fog Fog
8:03 AM 57.2 °F 57.2 °F 100% 30.07 in 0.5 mi Calm Calm - N/A Fog Fog
8:12 AM 57.2 °F 57.2 °F 100% 30.07 in 0.2 mi Calm Calm - N/A Fog Fog
8:33 AM 59.0 °F 59.0 °F 100% 30.08 in 0.2 mi Calm Calm - N/A Fog Fog
8:56 AM 61.0 °F 60.1 °F 97% 30.08 in 0.2 mi Calm Calm - N/A Fog Fog
9:08 AM 60.8 °F 60.8 °F 100% 30.09 in 0.5 mi Calm Calm - N/A Fog Fog
9:16 AM 62.6 °F 60.8 °F 94% 30.09 in 2.5 mi WNW 3.5 mph - N/A   Mostly Cloudy
9:23 AM 62.6 °F 60.8 °F 94% 30.09 in 8.0 mi Variable 3.5 mph - N/A   Scattered Clouds
9:56 AM 66.9 °F 59.0 °F 76% 30.09 in 10.0 mi Calm Calm - N/A   Clear
10:56 AM 71.1 °F 53.1 °F 53% 30.10 in 10.0 mi NNE 4.6 mph - N/A   Clear
11:56 AM 72.0 °F 50.0 °F 46% 30.10 in 10.0 mi Calm Calm - N/A   Clear
12:56 PM 73.9 °F 46.0 °F 37% 30.09 in 10.0 mi Calm Calm - N/A   Clear
1:56 PM 75.9 °F 46.0 °F 35% 30.08 in 10.0 mi Variable 3.5 mph - N/A   Clear
2:56 PM 78.1 °F 46.9 °F 33% 30.06 in 10.0 mi West 4.6 mph - N/A   Clear
3:56 PM 78.1 °F 46.0 °F 32% 30.05 in 10.0 mi West 3.5 mph - N/A   Clear
4:56 PM 77.0 °F 46.0 °F 33% 30.04 in 10.0 mi West 3.5 mph - N/A   Clear
5:56 PM 77.0 °F 46.9 °F 34% 30.04 in 10.0 mi Calm Calm - N/A   Clear
6:56 PM 70.0 °F 52.0 °F 53% 30.05 in 10.0 mi Calm Calm - N/A   Clear
7:56 PM 61.0 °F 54.0 °F 78% 30.06 in 10.0 mi Calm Calm - N/A   Clear
8:56 PM 55.9 °F 54.0 °F 93% 30.07 in 10.0 mi Calm Calm - N/A   Clear
9:56 PM 54.0 °F 51.1 °F 90% 30.06 in 10.0 mi Calm Calm - N/A   Clear
10:56 PM 54.0 °F 51.1 °F 90% 30.06 in 10.0 mi Calm Calm - N/A   Clear
11:56 PM 54.0 °F 51.1 °F 90% 30.07 in 10.0 mi Calm Calm - N/A   Clear